Regional Weather Roundup
Issued by NWS Boston, MA

Home | Current Version | Previous Version | Text Only | Print | Product List | Glossary On
Versions: 1 2 3 4 5 6 7 8 9 10 11 12 13 14 15 16 17 18 19 20 21 22 23 24 25 26 27 28 29 30 31 32 33 34 35 36 37 38 39 40 41 42 43 44 45 46 47 48 49 50
000
ASUS41 KBOX 170210
RWRBOX

REGIONAL WEATHER ROUNDUP
NATIONAL WEATHER SERVICE TAUNTON MA
1000 PM EDT WED AUG 16 2017

NOTE:  "FAIR" INDICATES FEW OR NO CLOUDS BELOW 12,000 FEET WITH NO
SIGNIFICANT WEATHER AND/OR OBSTRUCTIONS TO VISIBILITY.

MAZALL-170300-
EASTERN MASSACHUSETTS

CITY           SKY/WX    TMP DP  RH WIND       PRES   REMARKS
BOSTON         PTCLDY    73  50  44 N6        29.99R
BEVERLY        CLEAR     66  54  65 NW5       29.99R
LAWRENCE       PTCLDY    70  48  45 VRB5      30.02R
BEDFORD        CLEAR     67  52  58 CALM      29.99R
BLUE HILL        N/A     69  53  56 N8        30.00R
NORWOOD        CLEAR     62  57  83 S5        29.99R
MARSHFIELD     CLEAR     66  63  88 CALM      29.99R
PLYMOUTH       CLEAR     67  62  84 CALM      29.99R
TAUNTON        CLEAR     60  57  89 CALM      29.98R
NEW BEDFORD    CLEAR     69  66  90 CALM      29.98R
$$

MAZALL-170300-
CAPE COD AND THE ISLANDS

CITY           SKY/WX    TMP DP  RH WIND       PRES   REMARKS
FALMOUTH       PTCLDY    68  63  83 W3        30.00R
HYANNIS        PTCLDY    67  64  90 NE5       29.98R
CHATHAM        PTCLDY    68  64  87 CALM      30.00R
PROVINCETOWN   CLEAR     65  57  75 CALM      30.00R
NANTUCKET      CLEAR     67  66  97 SW6       29.99R
MARTHAS VNYRD  CLEAR     68  63  84 SW6       29.98S
$$

MAZALL-170300-
CENTRAL AND WESTERN MASSACHUSETTS

CITY           SKY/WX    TMP DP  RH WIND       PRES   REMARKS
WORCESTER      CLEAR     69  51  52 N7        30.03R
FITCHBURG      PTCLDY    65  58  78 NW3       30.02R
ORANGE         CLEAR     63  61  93 CALM      30.03R
SPRINGFIELD    CLEAR     71  60  69 N7        30.00R
WESTFIELD      CLEAR     67  62  84 NE6       30.01R
NORTH ADAMS    PTCLDY    61  59  93 CALM      30.05R
PITTSFIELD     CLEAR     63  54  72 SW3       30.05R
$$

RIZALL-170300-
RHODE ISLAND

CITY           SKY/WX    TMP DP  RH WIND       PRES   REMARKS
PROVIDENCE     PTCLDY    72  62  71 N6        30.00R
NEWPORT        CLEAR     68  66  93 CALM      29.98R
BLOCK ISLAND   CLEAR     73  66  78 W7        29.99R
WESTERLY       CLEAR     70  66  87 CALM      29.99R
$$

CTZALL-170300-
CONNECTICUT

CITY           SKY/WX    TMP DP  RH WIND       PRES   REMARKS
BRADLEY INTL   CLEAR     69  61  75 W7        30.00R
HARTFORD       CLEAR     76  58  53 NW5       30.00R
BRIDGEPORT     PTCLDY    75  62  64 CALM      30.00R
DANBURY        CLOUDY    70  65  84 CALM      30.03R
GROTON         CLEAR     69  62  78 N3        29.98R
NEW HAVEN      CLEAR     74  60  61 NW5       30.00R
CHESTER        NOT AVBL
MERIDEN        CLEAR     65  62  90 CALM      30.01R
WILLIMANTIC    PTCLDY    68  64  87 NW3       30.01R
OXFORD         CLEAR     66  61  84 N3        30.04R
$$

MEZ002-015-021-024-NHZ003-005-008-011-012-014-VTZ005-008-170300-
NORTHERN NEW ENGLAND

CITY           SKY/WX    TMP DP  RH WIND       PRES   REMARKS
PORTLAND ME    CLEAR     63  43  48 NW7       29.99R
BANGOR ME      CLEAR     62  46  55 W8        29.96R
CONCORD NH     CLEAR     63  47  55 NW6       30.02R
MANCHESTER NH  CLEAR     69  46  43 NW6       30.00R
NASHUA NH      CLEAR     65  55  70 NW6       30.02R
PORTSMOUTH NH  CLEAR     66  47  50 NW8       29.99R
JAFFREY NH     PTCLDY    63  56  78 VRB5      30.05R
KEENE NH         N/A    N/A N/A N/A MISG        N/A
BURLINGTON VT  CLEAR     60  52  74 CALM      30.05R
MT. WASHINGTON FOG       37  37 100 NW45        N/A  VSB 0   WCI  23
$$

NYZ052-076-170300-
EASTERN NEW YORK

CITY           SKY/WX    TMP DP  RH WIND       PRES   REMARKS
ALBANY         PTCLDY    67  57  70 N6        30.04R
NEW YORK CITY  PTCLDY    81  64  56 E6        29.99R
$$

ANZALL-170300-
MARINE OBSERVATIONS

STATION/POSITION TIME  TEMP    WIND        PRES    VSBY  WAVE
                       AIR SEA DIR/SP/G                  HT/PER
                 (UTC) (F)     (DEG/KT/KT) (MB)    (MI)  (FT/S)
BOSTON BUOY      0050   72 69  340/ 10/ 12 1014.2          2/13
BUZZARDS BAY     0100   73     190/  5/  6 1015.4R
NANTUCKET SOUND  0050   72 72  250/ 10/ 10 1014.8          1/14
MASS BAY-STELLWA 0104   70 68  340/  8/ 10 1014.1R         2/11
ISLE OF SHOALS   0100   72     310/  8/  9 1014.8R
S OF BLOCK IS    0143      69                N/A           5/11
$$

......................KEY.........................
  SKY/WX - SKY CONDITION/PRESENT WEATHER
  TMP    - TEMPERATURE IN FAHRENHEIT
  DWPT   - DEWPOINT IN FAHRENHEIT
  RH     - RELATIVE HUMIDITY IN PERCENT
  WIND   - DIRECTION AND SPEED IN MPH
  PRES   - MEAN SEA LEVEL PRESSURE IN INCHES OF HG
  WCI    - WIND CHILL INDEX
  VSB    - VISIBILITY IN MILES
  HX     - HEAT INDEX
  TC     - TEMPERATURE IN CELSIUS
  VRB    - VARIABLE WIND DIRECTION
  N/A    - NOT AVAILABLE



USA.gov is the U.S. government's official web portal to all federal, state and local government web resources and services.